Stephenville, TX

6:20 AM CST on November 21, 2017 (GMT -0600)
Clark Municipal

Weather History for KSEP - February, 2014

Change the Weather History Date:

Wednesday, February 26, 2014

  Actual Average Record
Temperature  
Mean Temperature 36 °F -  
Max Temperature 42 °F 64 °F 93 °F (2009)
Min Temperature 29 °F 39 °F 17 °F (1960)
Degree Days  
Heating Degree Days 30    
Moisture  
Dew Point 18 °F    
Average Humidity 52    
Maximum Humidity 78    
Minimum Humidity 31    
Precipitation  
Precipitation 0.00 in - - ()
Sea Level Pressure  
Sea Level Pressure 30.23 in    
Wind  
Wind Speed 13 mph (North)    
Max Wind Speed 24 mph    
Max Gust Speed 33 mph    
Visibility 10 miles    
Events      
Averages and records for this station are not official NWS values.
T = Trace of Precipitation, MM = Missing Value Source: NWS Daily Summary

Daily Weather History Graph

Daily Weather History Graph

Search for Another Location

Airport or City:

Trip Planner

Search our weather history database for the weather conditions in past years. The results will help you decide how hot, cold, wet, or windy it might be!

Date:

Astronomy

Feb. 26, 2014 Rise Set
Actual Time 7:03 AM CST 6:28 PM CST
Civil Twilight 6:38 AM CST 6:52 PM CST
Nautical Twilight 6:10 AM CST 7:21 PM CST
Astronomical Twilight 5:42 AM CST 7:49 PM CST
Moon 4:43 AM CST (2/26) 3:50 PM CST (2/26)
Length of Visible Light 12h 13m
Length of Day
11h 24m
Waning Crescent, 10% of the Moon is Illuminated
Feb 26
Waning Crescent
Mar 1
New
Mar 8
First Quarter
Mar 16
Full
Mar 23
Last Quarter

Hourly Weather History & Observations

Time (CST) Temp. Windchill Dew Point Humidity Pressure Visibility Wind Dir Wind Speed Gust Speed Precip Events Conditions
12:15 AM 39.6 °F 31.0 °F 32.2 °F 75% 30.17 in 10.0 mi North 16.1 mph - N/A   Overcast
12:35 AM 39.2 °F 33.0 °F 32.9 °F 78% 30.19 in 10.0 mi North 9.2 mph - N/A   Overcast
12:55 AM 39.2 °F 33.0 °F 32.9 °F 78% 30.19 in 10.0 mi North 9.2 mph - N/A   Overcast
1:15 AM 40.1 °F 31.0 °F 31.1 °F 70% 30.20 in 10.0 mi North 18.4 mph 23.0 mph N/A   Overcast
1:35 AM 39.6 °F 32.1 °F 31.8 °F 74% 30.20 in 10.0 mi North 12.7 mph 16.1 mph N/A   Overcast
1:55 AM 39.0 °F 31.4 °F 31.5 °F 74% 30.21 in 10.0 mi North 12.7 mph 26.5 mph N/A   Overcast
2:15 AM 39.2 °F 30.8 °F 30.6 °F 71% 30.21 in 10.0 mi North 15.0 mph 21.9 mph N/A   Overcast
2:35 AM 39.4 °F 29.2 °F 29.3 °F 67% 30.21 in 10.0 mi North 21.9 mph 29.9 mph N/A   Overcast
2:55 AM 39.4 °F 29.0 °F 27.9 °F 63% 30.21 in 10.0 mi North 23.0 mph 31.1 mph N/A   Overcast
3:15 AM 38.8 °F 29.4 °F 26.8 °F 62% 30.21 in 10.0 mi NNE 18.4 mph 27.6 mph N/A   Overcast
3:35 AM 38.3 °F 28.7 °F 26.4 °F 62% 30.22 in 10.0 mi North 18.4 mph 28.8 mph N/A   Overcast
3:55 AM 38.3 °F 27.8 °F 25.3 °F 60% 30.22 in 10.0 mi North 21.9 mph 27.6 mph N/A   Overcast
4:15 AM 37.2 °F 25.9 °F 23.5 °F 58% 30.23 in 10.0 mi North 24.2 mph 33.4 mph N/A   Overcast
4:35 AM 36.1 °F 25.5 °F 22.5 °F 58% 30.24 in 10.0 mi North 19.6 mph 28.8 mph N/A   Overcast
4:55 AM 34.5 °F 22.8 °F 23.0 °F 63% 30.25 in 10.0 mi North 21.9 mph 28.8 mph N/A   Overcast
5:15 AM 33.8 °F 23.5 °F 23.0 °F 65% 30.25 in 10.0 mi North 16.1 mph 27.6 mph N/A   Overcast
5:35 AM 33.3 °F 20.9 °F 21.9 °F 63% 30.26 in 10.0 mi North 23.0 mph 28.8 mph N/A   Overcast
5:55 AM 32.4 °F 21.7 °F 21.4 °F 64% 30.26 in 10.0 mi North 16.1 mph 27.6 mph N/A   Overcast
6:15 AM 32.2 °F 21.4 °F 21.2 °F 64% 30.28 in 10.0 mi North 16.1 mph 25.3 mph N/A   Overcast
6:35 AM 32.0 °F 21.6 °F 21.6 °F 65% 30.29 in 10.0 mi North 15.0 mph 25.3 mph N/A   Overcast
6:55 AM 31.6 °F 21.2 °F 21.6 °F 66% 30.29 in 10.0 mi North 15.0 mph 20.7 mph N/A   Overcast
7:15 AM 31.5 °F 21.4 °F 21.2 °F 66% 30.30 in 10.0 mi North 13.8 mph 21.9 mph N/A   Overcast
7:35 AM 30.9 °F 19.4 °F 20.5 °F 65% 30.31 in 10.0 mi North 17.3 mph 24.2 mph N/A   Overcast
7:55 AM 30.7 °F 18.8 °F 19.8 °F 64% 30.31 in 10.0 mi North 18.4 mph 23.0 mph N/A   Overcast
8:15 AM 30.2 °F 19.3 °F 19.2 °F 64% 30.32 in 10.0 mi North 15.0 mph 23.0 mph N/A   Overcast
8:35 AM 30.0 °F 18.7 °F 18.5 °F 62% 30.33 in 10.0 mi North 16.1 mph 21.9 mph N/A   Overcast
8:55 AM 30.0 °F 19.1 °F 18.0 °F 61% 30.33 in 10.0 mi North 15.0 mph 25.3 mph N/A   Mostly Cloudy
9:15 AM 29.5 °F 18.8 °F 16.9 °F 59% 30.32 in 10.0 mi North 13.8 mph 23.0 mph N/A   Scattered Clouds
9:35 AM 30.2 °F 18.5 °F 16.2 °F 56% 30.33 in 10.0 mi North 17.3 mph 24.2 mph N/A   Clear
9:55 AM 30.0 °F 19.1 °F 15.1 °F 54% 30.34 in 10.0 mi North 15.0 mph 24.2 mph N/A   Clear
10:15 AM 30.6 °F 19.8 °F 14.9 °F 52% 30.34 in 10.0 mi North 15.0 mph 23.0 mph N/A   Clear
10:35 AM 30.0 °F 19.5 °F 15.1 °F 54% 30.33 in 10.0 mi North 13.8 mph - N/A   Clear
10:55 AM 30.7 °F 20.0 °F 14.7 °F 52% 30.33 in 10.0 mi North 15.0 mph 21.9 mph N/A   Scattered Clouds
11:15 AM 31.6 °F 21.2 °F 14.0 °F 48% 30.33 in 10.0 mi North 15.0 mph 18.4 mph N/A   Scattered Clouds
11:35 AM 31.5 °F 21.4 °F 13.3 °F 47% 30.32 in 10.0 mi North 13.8 mph 19.6 mph N/A   Scattered Clouds
11:55 AM 32.0 °F 23.0 °F 13.1 °F 46% 30.31 in 10.0 mi NNW 11.5 mph 17.3 mph N/A   Clear
12:15 PM 32.9 °F 24.7 °F 13.6 °F 45% 30.29 in 10.0 mi North 10.4 mph 17.3 mph N/A   Clear
12:35 PM 35.1 °F 24.8 °F 13.6 °F 41% 30.28 in 10.0 mi North 17.3 mph - N/A   Clear
12:55 PM 35.2 °F 27.6 °F 12.7 °F 40% 30.26 in 10.0 mi NNW 10.4 mph 16.1 mph N/A   Clear
1:15 PM 35.6 °F 27.1 °F 12.6 °F 39% 30.25 in 10.0 mi NNW 12.7 mph - N/A   Clear
1:35 PM 37.4 °F 29.3 °F 12.0 °F 35% 30.24 in 10.0 mi NNW 12.7 mph 18.4 mph N/A   Clear
1:55 PM 38.1 °F 30.7 °F 11.7 °F 34% 30.23 in 10.0 mi NNW 11.5 mph 19.6 mph N/A   Clear
2:15 PM 37.8 °F 30.7 °F 12.4 °F 35% 30.21 in 10.0 mi North 10.4 mph 18.4 mph N/A   Clear
2:35 PM 39.2 °F 31.6 °F 12.6 °F 34% 30.20 in 10.0 mi North 12.7 mph 17.3 mph N/A   Clear
2:55 PM 39.7 °F 33.7 °F 13.3 °F 34% 30.19 in 10.0 mi North 9.2 mph - N/A   Clear
3:15 PM 41.0 °F 34.3 °F 13.3 °F 32% 30.19 in 10.0 mi North 11.5 mph 16.1 mph N/A   Clear
3:35 PM 41.7 °F 35.6 °F 13.3 °F 32% 30.17 in 10.0 mi North 10.4 mph 18.4 mph N/A   Clear
3:55 PM 42.1 °F 37.7 °F 13.8 °F 32% 30.17 in 10.0 mi North 6.9 mph 16.1 mph N/A   Clear
4:15 PM 41.5 °F 35.9 °F 13.3 °F 32% 30.17 in 10.0 mi North 9.2 mph 17.3 mph N/A   Clear
4:35 PM 41.7 °F 36.7 °F 13.1 °F 31% 30.16 in 10.0 mi North 8.1 mph - N/A   Clear
4:55 PM 41.5 °F 35.0 °F 13.1 °F 31% 30.16 in 10.0 mi North 11.5 mph - N/A   Clear
5:15 PM 41.2 °F 35.0 °F 13.1 °F 32% 30.17 in 10.0 mi North 10.4 mph - N/A   Clear
5:35 PM 40.5 °F 35.1 °F 12.6 °F 32% 30.17 in 10.0 mi North 8.1 mph - N/A   Clear
5:55 PM 39.9 °F 34.5 °F 12.4 °F 32% 30.17 in 10.0 mi North 8.1 mph - N/A   Clear
6:15 PM 39.0 °F 34.8 °F 12.7 °F 34% 30.17 in 10.0 mi North 5.8 mph - N/A   Clear
6:35 PM 37.2 °F 33.6 °F 14.5 °F 40% 30.17 in 10.0 mi North 4.6 mph - N/A   Clear
6:55 PM 36.5 °F 32.7 °F 14.5 °F 41% 30.17 in 10.0 mi North 4.6 mph - N/A   Clear
7:15 PM 36.0 °F 32.1 °F 14.2 °F 41% 30.18 in 10.0 mi North 4.6 mph - N/A   Clear
7:35 PM 34.7 °F 30.6 °F 14.9 °F 44% 30.19 in 10.0 mi North 4.6 mph - N/A   Clear
7:55 PM 34.7 °F 31.8 °F 15.1 °F 45% 30.19 in 10.0 mi NNE 3.5 mph - N/A   Clear
8:15 PM 34.0 °F - 15.6 °F 47% 30.19 in 10.0 mi Calm Calm - N/A   Clear
8:35 PM 34.0 °F - 14.9 °F 46% 30.19 in 10.0 mi Calm Calm - N/A   Clear
8:55 PM 33.8 °F 29.6 °F 15.4 °F 47% 30.20 in 10.0 mi NNW 4.6 mph - N/A   Clear
9:15 PM 32.5 °F 29.3 °F 17.1 °F 53% 30.19 in 10.0 mi NNW 3.5 mph - N/A   Clear
9:35 PM 32.0 °F 28.7 °F 17.2 °F 55% 30.19 in 10.0 mi NW 3.5 mph - N/A   Clear
9:55 PM 31.1 °F - 17.8 °F 58% 30.20 in 10.0 mi Calm Calm - N/A   Clear
10:15 PM 30.6 °F 25.8 °F 17.2 °F 58% 30.19 in 10.0 mi WNW 4.6 mph - N/A   Clear
10:35 PM 30.6 °F 25.8 °F 16.5 °F 56% 30.20 in 10.0 mi NW 4.6 mph - N/A   Clear
10:55 PM 30.9 °F 27.5 °F 16.2 °F 54% 30.19 in 10.0 mi NW 3.5 mph - N/A   Clear
11:15 PM 30.0 °F 26.5 °F 16.7 °F 58% 30.19 in 10.0 mi NW 3.5 mph - N/A   Clear
11:35 PM 29.7 °F 26.1 °F 17.6 °F 61% 30.19 in 10.0 mi NW 3.5 mph - N/A   Clear
11:55 PM 29.1 °F - 17.6 °F 62% 30.18 in 10.0 mi Calm Calm - N/A   Clear